Location: Proctor
(47.8934°N, 114.3048°W)
Time: 04:39:44
(UTC+00:00)

AO-73 - Pass Details

Date: 09 July 2022
Orbit: 579 x 657 km, 97.6° (Epoch: 09 August)

Event Time Altitude Azimuth Distance (km) Brightness Sun altitude
Rises 11:03:38 0° 21° (NNE) 2,986 ? -6.6°
Reaches altitude 10° 11:06:03 10° 31° (NNE) 2,075 ? -6.3°
Maximum altitude 11:10:10 33° 96° (E) 1,099 ? -5.8°
Drops below altitude 10° 11:14:16 10° 161° (SSE) 2,065 ? -5.3°
Sets 11:16:39 0° 170° (S) 2,968 ? -5.0°
